Home > Weather > Orlando > Past weeks

Flag for USA Weather for the Past 2 Weeks in Orlando, Florida, USA

Now
65 °F

Sunny.


Feels Like: 65 °F
Forecast: 59 / 77 °F
Wind: 9 mph from North

Location: Orlando Executive Airport

Current Time: May 6, 2016 at 10:00:41 AM

Latest Report: May 6, 2016 at 8:53 AM


Visibility: 10 mi

Pressure: 29.90 "Hg

Humidity: 47%

Dew Point: 44 °F

Location of OrlandoLocation

Historic Weather in Orlando — Graph

°F

Orlando Temperature Yesterday

Maximum temperature yesterday: 83 °F (at 2:53 PM)
Minimum temperature yesterday: 62 °F (at 5:53 AM)
Average temperature yesterday: 73 °F

High & Low Weather Summary for the Past Weeks

 TemperatureHumidityPressure
High92 °F (Apr 29, 4:53 PM)93% (Apr 29, 6:53 AM)30.14 "Hg (Apr 29, 6:53 AM)
Low61 °F (May 6, 5:53 AM)25% (May 5, 5:53 PM)29.64 "Hg (May 4, 4:53 PM)
Average77 °F65%29.96 "Hg
* Reported Apr 21 8:53 AM — May 6 8:53 AM, Orlando, Weather by CustomWeather, © 2016

Note: Actual official high and low records may vary slightly from our data, if they occured in-between our weather recording intervals... More about our weather records

Advertising

Orlando Weather History for the Previous 24 Hours

Scroll right to see more
 ConditionsComfort  
Time TempWeatherWind HumidityBarometerVisibility
8:53 AM
Fri, May 6
65 °FSunny.9 mph47%29.90 "Hg10 mi
7:53 AM63 °FSunny.8 mph50%29.89 "Hg10 mi
6:53 AM61 °FClear.3 mph54%29.87 "Hg10 mi
5:53 AM61 °FClear.3 mph54%29.85 "Hg10 mi
4:53 AM62 °FClear.3 mph50%29.84 "Hg10 mi
3:53 AM64 °FClear.No wind49%29.83 "Hg10 mi
2:53 AM65 °FPassing clouds.5 mph45%29.83 "Hg10 mi
1:53 AM67 °FPassing clouds.7 mph42%29.85 "Hg10 mi
12:53 AM68 °FClear.7 mph57%29.85 "Hg10 mi
11:53 PM
Thu, May 5
69 °FClear.7 mph57%29.83 "Hg10 mi
10:53 PM70 °FClear.9 mph51%29.83 "Hg10 mi
9:53 PM71 °FClear.12 mph45%29.81 "Hg10 mi
8:53 PM73 °FSunny.9 mph40%29.79 "Hg10 mi
7:53 PM75 °FSunny.15 mph31%29.76 "Hg10 mi
6:53 PM78 °FSunny.15 mph28%29.74 "Hg10 mi
5:53 PM81 °FSunny.22 mph25%29.72 "Hg10 mi
4:53 PM83 °FSunny.23 mph26%29.72 "Hg10 mi
3:53 PM83 °FSunny.21 mph30%29.72 "Hg10 mi
2:53 PM83 °FPassing clouds.22 mph34%29.74 "Hg10 mi
1:53 PM81 °FPassing clouds.17 mph37%29.76 "Hg10 mi
12:53 PM79 °FSunny.14 mph38%29.80 "Hg10 mi
11:53 AM79 °FPassing clouds.15 mph38%29.81 "Hg10 mi
10:53 AM76 °FSunny.18 mph42%29.81 "Hg10 mi
Weather by CustomWeather, © 2016

See weather overviewHow to use our weather pages